Regional Weather Roundup
Issued by NWS Upton, NY

Home | Current Version | Previous Version | Text Only | Print | Product List | Glossary On
Versions: 1 2 3 4 5 6 7 8 9 10 11 12 13 14 15 16 17 18 19 20 21 22 23 24 25 26 27 28 29 30 31 32 33 34 35 36 37 38 39 40 41 42 43 44 45 46 47 48 49 50
000
ASUS41 KOKX 251705
RWROKX

REGIONAL WEATHER ROUNDUP
NATIONAL WEATHER SERVICE NEW YORK NY
1200 PM EST THU DEC 25 2014

NOTE: "FAIR" INDICATES FEW OR NO CLOUDS BELOW 12,000 FEET WITH NO
SIGNIFICANT WEATHER AND/OR OBSTRUCTIONS TO VISIBILITY.

NYZ071-072-176-178-NJZ106-104-251800-
NEW YORK CITY METRO AREA


CITY           SKY/WX    TMP DP  RH WIND       PRES   REMARKS
CENTRAL PARK   MOSUNNY   52  28  39 W15G26    29.78S
LAGUARDIA APRT MOSUNNY   52  28  39 W23G32    29.75S
KENNEDY INTL   MOSUNNY   53  28  38 W23G36    29.76F
NEWARK/LIBERTY PTSUNNY   53  30  41 W21G33    29.77S
BRNX BOT. GARD   N/A    N/A N/A N/A W22       29.77R
TETERBORO      MOSUNNY   50  32  50 W23G30    29.75S
$$

NYZ177-179-078>081-251800-
LONG ISLAND NEW YORK

CITY           SKY/WX    TMP DP  RH WIND       PRES   REMARKS
FARMINGDALE    SUNNY     52  31  44 W21G28    29.73S
ISLIP          MOSUNNY   52  33  48 W21G29    29.70R
SHIRLEY        PTSUNNY   52  33  48 W23G37    29.72R
WESTHAMPTON    PTSUNNY   53  37  54 W18G28    29.71S
MONTAUK POINT    N/A     50  41  71 W13G23    29.67F
$$

NYZ052-065-067-251800-
HUDSON VALLEY

CITY           SKY/WX    TMP DP  RH WIND       PRES   REMARKS
WHITE PLAINS   PTSUNNY   50  29  44 NW18G32   29.72R
NEWBURGH       PTSUNNY   48  34  57 W14G25    29.73R
MONTGOMERY     PTSUNNY   50  31  48 W10G23    29.72R
POUGHKEEPSIE   PTSUNNY   51  30  44 W17G25    29.71R
ALBANY         PTSUNNY   48  31  51 W16G26    29.68R
$$

NJZ001-105-106-008-010-013-015-019>022-104-251800-
NEW JERSEY

CITY           SKY/WX    TMP DP  RH WIND       PRES   REMARKS
NEWARK/LIBERTY PTSUNNY   53  30  41 W21G33    29.77S
TETERBORO      MOSUNNY   50  32  50 W23G30    29.75S
CALDWELL       CLOUDY    51  27  39 NW15G25   29.77S
MORRISTOWN     PTSUNNY   54  32  43 NW23G32   29.78S
SOMERVILLE     MOSUNNY   50  30  46 VRB7G23   29.78S
SUSSEX         CLOUDY    49  29  46 W14G25    29.77R
ANDOVER        NOT AVBL
TRENTON        MOSUNNY   51  29  42 W20G32    29.82R
MILLVILLE      MOSUNNY   53  32  44 W16G30    29.88R
ATLANTIC CITY  SUNNY     52  33  48 W26G35    29.84R
WRIGHTSTOWN    PTSUNNY   51  31  46 W15G24    29.81R
TOMS RIVER     MOSUNNY   52  32  46 W24G39    29.82R
BELMAR         MOSUNNY   52  30  43 W21G31    29.80R
$$

PAZ047>061-062-071-251800-
EASTERN PENNSYLVANIA

CITY           SKY/WX    TMP DP  RH WIND       PRES   REMARKS
PHILADELPHIA   PTSUNNY   52  31  44 W25G31    29.87R
ALLENTOWN      PTSUNNY   50  31  48 W16G30    29.82R
SCRANTON       CLOUDY    45  32  60 W15G24    29.79R
$$

CTZ002-004>006-009-010-012-RIZ004-006-007-MAZ004-011-015-251800-
SOUTHERN NEW ENGLAND
 IN CT

CITY           SKY/WX    TMP DP  RH WIND       PRES   REMARKS
BRADLEY INTL   PTSUNNY   51  37  58 W14       29.62F
HARTFORD       CLOUDY    52  37  56 SW12G23   29.65S
DANBURY        SUNNY     50  29  44 NW15G28   29.70S
WTRBRY/OXFORD  NOT AVBL
BRIDGEPORT     MOSUNNY   53  35  50 W14G26    29.68F
MERIDEN        MOSUNNY   52  33  48 NW12G29   29.67S
NEW HAVEN      MOSUNNY   54  33  45 NW15G30   29.67F
CHESTER        FAIR      50  36  57 W12G23    29.65F
GROTON         PTSUNNY   52  40  63 W16G24    29.64F
WILLIMANTIC    PTSUNNY   52  39  61 NW12G20   29.63F

 IN RI

CITY           SKY/WX    TMP DP  RH WIND       PRES   REMARKS
PROVIDENCE     CLOUDY    53  38  56 W15G24    29.61S
BLOCK ISLAND   CLOUDY    48  41  76 W18G26    29.64F
WESTERLY       CLOUDY    53  42  66 W10       29.64F

 IN MA

CITY           SKY/WX    TMP DP  RH WIND       PRES   REMARKS
BOSTON         CLOUDY    50  38  63 W16G29    29.57S
WORCESTER      PTSUNNY   48  32  53 W26G33    29.57F
WESTFIELD      MOSUNNY   52  30  43 W12G25    29.62S
PROVINCETOWN   CLOUDY    52  46  82 W14       29.57S
NANTUCKET      CLOUDY    50  45  83 SW17      29.61F
$$

ANZ330-335-338-340-345-350-353-355-251800-
COASTAL MARINE OBSERVATIONS


STATION/POSITION TIME  SKY/WX   TEMP    WIND        PRES    VSBY  WAVE
                                AIR SEA DIR/SP/G                  HT/PER
                 (UTC)          (F)     (DEG/KT/KT) (MB)    (MI)  (FT/S)
NY HARB ENTRANCE 1700            49 47  280/ 21/ 25 1008.3          6/ 8
4S FIRE IS       1700               47                N/A           7/ 8
20S FIRE ISLAND  1600            47 50              1007.2          7/ 8
23SW MTP         1700                                 N/A           8/ 9
HUDSON CANYON    1700            51 56  300/ 25/ 31 1007.3
EXECUTION ROCKS  1700            50 42  280/ 17/ 25   N/A
WESTERN LI SOUND 1700            49     280/ 17/ 21   N/A           2/ 3
CENTRAL LI SOUND 1600            47 44  270/ 16/ 17   N/A           2/ 4
EASTERN LI SOUND NOT AVBL
ROBBINS REEF     1700            50                 1006.4
$$


>>>>>>>>>>>>>>>>>>>>>>>>>>>> KEY <<<<<<<<<<<<<<<<<<<<<<<<<<<
>                                                          <
>     SKY/WX - SKY CONDITION/PRESENT WEATHER               <
>     TMP    - TEMPERATURE IN FAHRENHEIT                   <
>     DP     - DEWPOINT IN FAHRENHEIT                      <
>     RH     - RELATIVE HUMIDITY IN PERCENT                <
>     WIND   - DIRECTION AND SPEED IN MPH                  <
>     PRES   - MEAN SEA LEVEL PRESSURE IN INCHES OF HG     <
>     WCI    - WIND CHILL INDEX                            <
>     VSB    - VISIBILITY IN MILES                         <
>     HX     - HEAT INDEX                                  <
>     TC     - TEMPERATURE IN CELSIUS                      <
>     VRB    - VARIABLE WIND DIRECTION                     <
>                                                          <
>>>>>>>>>>>>>>>>>>>>>>>>>>>> KEY <<<<<<<<<<<<<<<<<<<<<<<<<<<





USA.gov is the U.S. government's official web portal to all federal, state and local government web resources and services.